GFSCGP_sfc_dewp_177.txt.gz
Dewpoint
26 28 27 31 42 41 41 42 45 44 42 44 43 48 50 53 55 57 58 59 60 60 62 63 62 63 63 64 65 68 65 68 69 70 68 67 66 66 66 67 67 66 69 71
25 26 28 30 41 38 40 42 44 43 42 42 41 43 47 49 52 55 57 57 58 59 61 63 63 63 62 63 63 67 67 67 69 70 68 68 69 68 70 70 69 68 69 70
23 26 29 28 29 37 38 40 40 39 39 40 42 41 42 43 46 52 55 56 56 57 60 62 62 63 63 63 67 67 68 71 69 69 70 70 71 68 67 66 66 67 70 70
23 25 27 27 27 37 36 38 37 36 30 26 41 39 41 41 42 46 51 53 54 56 60 61 62 63 63 64 66 68 69 70 71 70 70 69 67 66 66 66 68 70 71 70
22 25 26 26 25 29 32 36 30 25 23 24 26 39 42 41 40 41 47 48 50 57 57 59 61 63 64 64 66 67 68 69 70 70 69 68 70 69 69 68 67 67 71 72
21 26 28 27 26 26 31 28 29 26 22 22 26 32 41 40 40 41 44 44 47 55 58 60 61 62 63 64 66 67 68 68 69 71 70 70 68 68 68 68 71 71 70 71
19 21 26 27 25 25 27 26 25 26 21 22 23 30 35 41 41 41 44 45 46 51 55 59 60 62 63 63 65 68 70 69 71 71 72 71 71 72 72 69 69 70 70 70
20 19 23 26 25 25 25 24 29 25 24 22 27 30 36 40 42 41 43 45 46 48 52 56 58 61 61 62 64 67 70 71 72 72 72 73 73 72 72 72 71 70 71 72
16 23 25 25 25 24 28 23 25 24 25 25 27 38 37 38 38 40 41 41 46 47 50 54 57 59 60 61 62 65 70 71 72 73 72 73 74 73 72 71 70 70 70 73
19 24 23 23 24 24 25 29 23 26 27 28 27 32 32 34 35 39 40 40 45 47 49 53 55 58 60 60 62 64 69 70 72 72 72 72 73 73 73 73 73 73 73 74
11 21 23 23 21 22 24 23 28 25 26 22 27 29 32 36 36 37 39 41 43 45 48 50 55 57 60 59 61 63 70 70 72 72 72 72 73 73 74 73 74 74 73 72
12 20 19 22 24 24 23 21 23 28 24 28 30 28 28 39 37 34 32 41 44 44 46 49 52 56 58 59 60 61 69 70 72 72 72 73 73 74 75 75 74 74 72 71
13 14 20 25 21 22 21 21 22 25 30 26 27 30 34 36 34 37 39 44 44 45 45 48 51 56 57 59 59 61 66 70 71 72 73 73 74 74 74 72 71 71 70 68
32 17 24 21 25 21 20 19 21 20 22 27 25 25 34 38 41 42 41 45 48 46 48 48 53 55 57 59 60 62 65 71 71 72 73 74 72 71 71 71 70 68 67 63
24 17 21 25 23 22 20 18 18 19 18 25 23 27 32 40 38 39 45 47 50 53 60 55 57 57 62 66 63 65 68 71 73 73 73 71 71 71 69 68 68 66 63 62
18 22 21 22 22 19 19 19 17 14 18 20 21 28 35 35 41 43 49 50 51 55 63 67 68 68 69 70 68 69 72 73 73 73 72 71 70 69 68 68 65 64 63 62
18 19 26 19 21 21 20 18 14 13 19 17 23 29 36 37 40 43 51 53 53 60 63 65 67 68 69 70 71 72 72 73 72 71 70 69 68 68 67 65 64 63 62 61
24 23 29 20 30 23 24 22 15 13 16 23 24 30 40 38 37 48 50 53 55 61 63 66 68 69 70 71 72 73 73 71 70 69 69 68 68 66 65 64 63 63 61 60
26 25 31 25 23 26 25 25 25 18 17 21 29 32 34 37 39 45 53 55 57 61 63 66 68 69 70 71 73 72 70 70 69 68 68 67 65 64 63 62 62 62 59 60
28 28 28 35 22 19 27 28 28 28 28 31 28 29 30 34 33 42 50 56 59 63 66 68 70 70 71 72 72 70 69 68 68 68 66 65 64 64 62 61 60 61 58 57
34 30 27 35 29 29 33 29 27 24 28 28 32 32 31 39 43 46 47 53 63 66 68 69 70 70 72 71 70 69 68 67 67 66 64 64 63 62 62 61 60 59 57 57
38 32 32 34 32 27 39 28 24 31 37 33 34 35 33 36 45 62 65 66 67 68 69 70 71 72 71 71 69 68 67 66 64 63 63 62 62 61 62 60 58 59 58 57
34 40 35 32 33 45 42 37 45 42 42 35 33 38 43 39 43 66 67 67 68 68 70 71 71 70 70 69 68 66 64 62 62 61 62 61 61 61 60 59 57 56 56 55
37 39 36 40 39 37 42 41 41 42 48 42 40 37 37 44 45 66 67 67 68 70 70 70 69 68 68 68 66 63 62 62 61 61 61 60 59 59 59 54 48 44 45 44
34 38 38 42 41 43 41 45 43 45 47 47 46 46 46 47 59 66 67 68 69 69 70 69 68 68 66 64 62 62 62 60 59 60 59 58 56 47 45 43 42 39 38 42
35 35 36 35 43 44 44 47 48 41 46 42 42 45 48 61 65 67 68 69 69 69 69 68 67 66 63 62 61 61 61 60 59 57 57 55 47 44 39 38 37 44 43 41

GFSCGP_sfc_dewp_183.txt.gz
Dewpoint
24 19 22 31 39 41 40 39 41 44 46 47 51 57 59 60 59 59 58 60 61 61 62 62 62 62 60 58 61 63 66 65 66 67 65 65 65 65 65 65 66 68 68 66
18 18 20 26 38 41 40 38 41 43 44 45 53 55 58 59 59 59 59 59 60 60 61 62 62 62 62 62 62 64 66 64 65 66 66 65 65 65 65 67 68 67 67 68
16 16 25 28 35 38 39 39 39 39 42 44 50 50 56 58 59 59 59 59 60 60 60 61 62 63 62 62 64 65 66 65 64 66 66 66 68 68 67 66 65 65 65 67
15 17 25 30 35 38 36 40 39 40 39 36 44 37 50 54 57 58 59 59 59 60 60 61 62 62 62 62 64 65 65 65 65 67 66 66 65 65 66 65 64 66 68 68
14 17 18 24 29 38 35 39 40 40 38 36 39 37 39 52 53 55 58 59 60 60 60 61 62 62 62 62 63 64 65 65 66 67 66 66 65 66 66 67 67 67 68 70
14 20 20 20 25 35 36 38 35 33 34 34 36 37 38 46 49 53 55 58 59 59 60 61 62 63 63 63 63 64 64 65 65 67 67 66 66 66 67 67 68 68 68 69
14 12 16 27 26 29 35 32 29 28 26 31 32 37 35 43 46 50 52 55 58 59 59 60 62 62 63 62 63 64 65 64 66 67 66 67 66 67 67 67 67 66 66 68
9 8 12 19 25 26 32 32 29 26 23 21 33 35 37 39 44 46 51 54 56 57 58 60 61 62 62 63 63 64 64 65 66 67 67 68 67 67 67 67 68 69 70 69
11 9 16 17 25 26 26 28 31 26 25 23 25 26 36 43 42 44 48 52 54 55 58 60 61 62 62 63 63 64 64 65 66 67 67 68 68 68 68 69 70 71 70 70
13 9 15 24 21 25 26 26 24 24 24 21 24 25 31 42 41 43 46 50 52 53 56 59 61 62 62 63 63 64 65 65 65 66 67 68 69 69 70 70 70 70 70 71
17 19 14 19 21 19 25 24 24 24 25 22 22 24 30 43 42 42 45 48 50 51 56 57 59 61 62 63 63 64 65 65 66 66 67 68 70 72 71 71 71 71 71 71
13 13 16 15 23 24 23 24 24 24 22 25 24 23 31 43 42 42 43 46 48 49 55 57 58 59 60 62 62 64 66 67 68 68 69 71 71 71 71 71 71 71 71 70
15 11 10 16 12 21 22 23 24 25 25 25 23 24 28 38 42 42 43 44 46 47 52 55 58 59 60 61 62 62 64 66 68 70 70 71 71 71 71 71 72 72 68 65
42 12 10 10 14 19 21 22 24 23 23 22 23 22 24 26 34 40 42 44 46 47 49 52 55 57 59 61 61 62 63 65 68 70 70 70 71 71 71 72 71 68 65 59
21 12 12 10 18 22 22 22 22 21 22 22 22 24 24 26 32 37 42 43 45 47 48 48 52 55 57 59 60 61 62 66 68 70 70 70 71 71 72 70 66 64 60 55
26 15 14 10 10 10 12 18 23 21 22 21 20 21 25 29 39 39 41 42 43 46 48 48 50 53 56 58 60 60 62 67 69 70 70 71 71 70 69 66 62 61 56 54
26 21 15 12 14 17 19 15 19 22 22 21 20 22 25 28 33 40 39 42 42 43 47 48 49 51 55 57 59 60 62 68 69 70 71 71 70 68 65 62 62 58 55 54
26 25 19 13 17 13 14 21 23 22 23 22 21 23 28 28 31 37 45 42 43 43 45 46 48 50 54 58 59 62 67 68 70 70 70 70 68 65 62 61 62 59 56 55
28 25 21 16 15 17 19 23 21 21 21 26 23 24 27 31 36 35 43 48 45 45 46 48 49 51 59 60 65 69 70 71 70 70 69 68 66 63 62 61 61 60 57 55
24 26 23 22 16 14 24 26 26 23 21 26 25 25 28 38 30 35 45 50 53 52 51 55 59 67 66 68 70 70 70 70 69 69 68 67 64 63 62 61 60 58 58 56
25 26 24 24 18 21 24 27 27 21 24 28 26 25 28 35 37 34 48 53 59 63 66 67 67 67 69 71 70 69 69 69 69 68 66 64 63 62 61 60 58 58 57 56
23 24 25 24 19 15 28 29 22 25 28 27 29 31 32 33 34 38 50 56 63 66 68 68 69 70 70 70 69 68 68 68 66 65 64 62 62 61 61 59 56 57 57 55
29 29 28 25 22 26 31 25 27 25 23 27 26 30 32 34 36 43 54 61 64 66 67 69 69 69 69 69 69 68 66 65 64 64 62 61 60 59 59 57 55 54 54 54
34 35 35 31 32 34 36 37 38 36 37 36 31 30 45 46 54 61 62 65 66 67 68 70 69 68 68 68 68 66 65 64 64 62 61 60 59 58 56 56 55 55 53 51
34 37 36 35 35 37 37 37 40 44 45 45 40 38 43 52 59 63 65 66 67 68 69 69 69 68 67 66 64 65 64 63 62 61 60 59 57 55 48 45 49 49 46 49
39 38 37 42 42 46 35 44 40 38 43 43 41 44 48 59 62 64 65 67 69 69 69 68 68 67 65 63 63 63 63 62 61 59 59 57 52 47 42 38 38 43 43 43

GFSCGP_sfc_dewp_186.txt.gz
Dewpoint
23 19 20 23 36 37 39 39 39 43 47 52 53 55 60 61 60 60 61 61 61 61 62 62 61 61 60 60 61 62 64 67 67 67 66 66 65 67 67 67 68 70 70 69
19 16 20 27 38 39 40 40 40 42 45 46 51 54 59 60 60 60 60 59 61 62 62 63 63 62 61 59 60 61 64 66 66 67 67 66 66 66 67 68 70 70 68 69
16 16 21 23 29 36 39 37 38 38 43 49 51 49 57 59 60 59 60 59 60 61 61 62 63 63 62 61 60 60 63 66 66 67 67 67 68 68 68 68 68 67 68 69
16 18 22 25 27 33 32 38 39 39 38 36 44 36 51 56 58 59 59 59 59 60 61 62 62 63 63 62 63 63 64 66 66 66 66 66 65 64 66 67 67 68 70 70
16 16 21 25 27 36 32 39 39 40 39 37 41 38 39 54 55 57 59 59 59 60 60 61 62 63 63 63 63 64 66 66 67 66 66 66 66 66 67 68 68 68 69 71
15 19 18 17 27 36 37 38 33 31 35 33 36 36 34 50 52 55 57 59 60 60 60 61 62 63 63 64 64 65 66 66 66 67 67 67 66 66 66 67 67 68 69 70
15 14 17 23 22 30 34 33 30 28 29 30 33 36 34 41 50 53 55 57 59 60 60 61 62 63 63 63 63 64 65 65 66 66 67 67 67 67 67 67 68 68 68 68
10 10 13 17 21 26 31 31 30 27 25 23 35 35 33 41 45 51 54 56 58 59 60 60 61 62 63 63 64 64 64 65 66 66 66 68 68 67 67 68 68 68 69 71
11 9 15 20 24 27 29 32 32 28 27 27 27 29 30 45 45 50 52 54 57 58 59 60 61 62 63 64 64 64 64 65 66 66 67 68 68 68 67 68 70 70 72 71
11 7 13 14 23 27 27 28 26 27 28 26 26 26 27 39 43 46 49 53 56 58 58 59 61 62 63 63 64 64 65 65 66 66 67 68 68 69 69 70 70 71 72 72
14 13 9 19 15 19 25 24 25 26 27 26 25 26 30 38 44 45 47 51 55 57 57 58 60 62 63 63 64 64 64 65 66 66 67 68 69 69 70 70 71 72 72 73
21 15 15 10 22 19 22 23 24 25 23 25 25 25 30 37 44 45 46 51 53 55 56 58 60 61 63 63 64 64 64 65 66 67 67 68 70 71 71 71 72 72 72 69
21 12 9 23 11 23 18 24 24 25 26 25 24 25 29 42 44 45 45 48 52 53 55 58 60 61 62 63 64 64 65 65 66 68 68 70 70 71 71 72 72 72 69 63
39 14 12 9 13 21 23 23 25 24 24 24 25 26 29 37 43 45 45 47 50 52 55 57 58 61 61 62 63 64 65 66 68 69 70 70 70 71 71 72 72 70 65 59
27 15 13 13 17 21 20 23 25 23 24 22 24 25 26 31 33 44 45 47 49 50 51 55 57 59 61 62 63 64 64 66 68 70 70 70 71 71 72 72 69 65 61 56
13 21 14 12 13 12 14 21 24 23 25 25 24 26 28 34 36 37 40 45 48 49 49 52 55 58 59 61 62 63 64 66 69 69 70 70 71 72 71 69 65 61 57 55
14 24 18 14 13 15 12 12 19 25 25 24 22 25 31 31 36 39 41 44 46 48 50 51 52 55 57 59 61 62 63 67 68 69 70 70 71 70 69 66 62 58 57 54
14 24 24 16 16 12 14 15 13 20 25 25 29 28 31 31 34 36 42 44 47 48 50 51 51 53 56 58 61 63 64 67 68 69 70 71 70 69 65 64 61 59 56 53
15 25 23 18 16 17 20 24 17 21 20 28 27 29 28 34 38 35 43 47 47 48 48 52 52 52 56 58 61 63 65 67 68 69 70 70 69 66 64 62 60 59 57 54
19 24 25 24 17 15 23 25 26 26 19 30 30 30 28 36 29 33 40 49 49 50 51 52 54 56 58 61 63 65 66 67 68 70 70 70 68 65 64 62 61 59 56 53
26 27 23 21 25 22 25 26 27 21 24 29 31 32 32 33 34 34 39 46 51 52 53 55 59 59 60 65 66 66 68 68 69 70 70 68 66 65 64 62 60 58 55 53
24 27 26 26 24 21 27 30 24 28 33 33 32 32 33 38 36 39 44 50 61 62 64 63 63 66 68 68 67 68 68 69 69 68 67 66 65 63 62 61 59 58 56 53
31 29 29 28 28 32 30 27 31 30 32 33 34 34 36 36 37 39 45 52 61 64 66 66 66 68 69 69 68 68 68 67 66 66 65 64 64 63 62 60 58 57 57 54
35 37 35 37 34 43 36 36 35 34 30 31 32 33 37 36 38 40 48 58 63 66 67 68 68 68 68 68 68 67 67 66 65 64 63 62 61 61 60 59 59 58 56 55
36 39 41 39 44 49 43 46 51 52 41 40 36 36 41 45 50 50 57 61 65 66 68 68 68 68 68 68 67 66 66 66 64 63 62 61 59 59 56 53 56 57 56 55
41 39 40 45 46 47 50 50 54 55 49 46 44 43 45 50 53 61 62 65 66 68 68 68 68 68 66 66 65 65 66 65 63 61 60 59 55 53 52 48 44 44 45 44

GFSCGP_sfc_dewp_189.txt.gz
Dewpoint
23 20 20 30 37 39 40 39 39 41 46 52 51 52 57 59 59 59 59 60 61 61 62 63 63 64 64 64 66 67 67 70 71 69 68 68 66 67 67 68 70 71 72 70
21 19 22 24 35 38 39 38 39 41 47 50 49 50 56 59 58 57 57 59 59 60 61 62 63 63 63 63 64 66 67 69 70 70 70 69 68 67 67 69 71 72 71 72
16 17 21 24 31 33 35 34 38 37 44 48 49 47 55 58 58 59 58 59 59 60 61 63 63 63 62 63 65 65 67 68 69 70 70 70 70 69 67 67 67 69 71 72
18 19 19 21 24 31 30 35 36 40 40 36 47 35 46 54 57 58 58 59 58 60 61 63 64 64 63 63 64 66 67 68 68 70 69 71 67 64 66 68 68 69 71 71
18 18 19 21 24 27 28 33 36 38 39 39 43 37 39 51 54 55 57 58 59 59 60 61 62 64 64 64 64 66 67 68 70 69 70 68 69 66 67 67 70 72 72 72
18 18 20 20 24 28 38 38 37 38 37 35 37 36 34 46 50 53 54 57 59 59 59 61 62 64 64 65 65 66 68 69 69 69 69 70 70 70 67 68 68 67 68 69
16 17 17 20 23 31 33 33 33 34 33 32 36 39 37 41 48 50 54 57 59 60 60 61 62 63 65 65 65 66 68 69 68 68 69 70 70 71 71 71 68 69 67 68
13 12 16 18 19 30 28 29 29 31 29 29 35 33 32 39 40 50 54 56 58 59 60 61 61 63 64 64 66 66 67 69 69 69 70 71 72 68 68 70 68 68 68 68
14 10 14 18 18 27 32 31 29 30 30 29 30 33 33 43 44 48 53 55 57 59 60 61 61 62 64 65 65 66 67 69 69 69 70 71 71 71 70 72 72 68 72 71
21 13 11 13 21 24 29 30 27 31 31 30 29 32 30 38 42 50 52 55 57 59 59 61 62 63 63 64 65 66 66 68 68 68 69 70 71 71 71 71 71 72 72 73
15 15 13 15 17 21 28 29 29 28 30 28 28 28 39 39 43 50 51 54 57 59 59 60 61 62 64 64 65 66 66 67 68 69 70 70 70 71 71 71 72 72 73 75
18 13 14 14 14 20 25 29 30 28 33 31 29 27 31 36 40 48 50 54 55 57 58 60 61 62 64 64 64 65 66 67 69 70 71 70 70 71 71 72 72 73 74 74
21 16 14 15 14 20 22 27 30 31 33 34 27 27 32 41 46 48 48 51 56 58 59 60 62 63 64 65 66 66 67 67 68 70 70 70 70 70 71 72 72 73 74 71
37 22 21 9 15 17 20 23 28 28 29 30 27 30 34 34 44 48 49 52 55 59 60 60 63 66 67 67 68 68 68 67 68 69 69 70 70 70 71 72 73 74 72 68
23 27 23 16 17 15 19 17 23 27 29 27 28 30 32 38 43 49 50 52 54 57 58 60 62 66 66 68 68 68 68 69 69 69 69 71 71 72 72 73 74 73 70 66
29 28 27 20 14 16 16 21 19 23 25 28 27 31 33 39 40 39 48 52 54 57 57 61 63 64 66 67 68 68 69 70 71 70 70 71 72 73 73 74 72 70 66 61
31 24 29 21 19 17 17 18 22 25 25 27 27 33 36 36 37 41 43 51 54 55 57 59 61 64 65 66 68 68 69 68 70 71 72 72 73 73 73 73 71 67 63 58
31 30 23 23 24 18 19 18 17 23 28 28 31 34 37 39 40 39 45 46 52 55 56 59 59 63 64 65 67 68 68 70 70 71 71 72 73 72 73 72 70 66 61 57
30 27 17 25 19 19 19 21 19 20 23 28 32 33 35 37 36 39 43 51 53 55 57 59 59 61 64 64 67 68 69 68 69 70 71 72 72 72 72 70 68 64 59 54
28 31 17 26 22 19 24 21 26 23 23 30 29 32 31 37 30 37 50 46 52 55 60 61 60 60 62 66 68 68 68 69 69 70 71 72 73 72 70 69 67 63 59 55
25 24 21 19 20 25 30 23 29 26 25 33 34 38 37 38 40 48 49 48 51 57 58 59 61 61 64 67 68 67 68 69 70 71 71 72 72 71 70 68 66 63 57 55
27 25 21 24 23 22 30 29 28 36 44 39 41 41 44 46 47 49 48 49 52 56 57 58 61 63 67 68 68 69 69 71 72 72 72 72 71 69 67 67 64 62 57 55
32 32 30 27 25 40 44 48 44 46 43 41 44 41 45 43 43 47 50 52 54 58 63 59 60 64 66 69 68 69 72 73 73 72 71 71 70 68 67 66 63 58 57 53
40 42 42 44 43 47 46 50 52 55 57 54 43 42 42 43 47 48 52 52 56 62 65 63 63 65 68 68 69 71 72 72 71 70 69 69 68 66 66 64 62 58 55 54
39 41 44 47 45 40 48 48 53 55 57 58 54 41 42 48 48 51 54 58 59 64 67 67 68 69 69 70 70 70 70 71 69 68 68 67 66 65 64 63 62 59 58 55
38 37 33 38 37 38 41 47 51 53 55 57 57 49 43 46 51 53 55 58 60 65 69 69 69 69 69 70 69 68 70 70 68 67 66 65 64 63 60 57 52 46 50 48

GFSCGP_sfc_dewp_192.txt.gz
Dewpoint
17 17 23 28 37 35 33 36 34 35 40 48 48 47 53 57 55 56 60 61 61 61 62 63 64 62 63 64 67 69 70 72 72 69 67 67 65 66 66 66 69 71 70 71
12 15 21 27 31 34 34 34 35 36 41 45 42 45 48 56 55 53 55 58 59 60 62 63 64 64 63 63 66 68 70 72 72 69 70 68 68 66 64 66 70 70 70 72
8 16 17 25 28 33 32 33 32 35 42 45 42 41 46 54 55 51 52 55 58 59 60 63 64 64 63 63 65 67 69 69 71 71 70 71 70 68 63 63 64 68 70 70
6 13 14 23 27 30 30 31 30 35 38 33 43 32 46 51 54 52 51 50 53 57 60 62 63 64 64 64 63 66 68 69 69 71 69 71 66 63 63 66 66 67 70 70
10 9 14 21 26 30 29 30 32 33 35 35 36 35 34 47 52 52 52 52 51 54 58 60 61 63 63 63 61 63 68 69 69 70 70 66 69 65 65 65 69 72 72 71
9 13 14 16 24 28 30 31 32 33 32 32 33 35 31 39 46 51 52 54 52 52 56 59 62 63 63 63 63 65 69 72 72 70 70 71 70 70 66 67 66 66 66 68
13 11 14 15 19 27 29 30 29 29 29 31 35 34 36 37 42 46 52 52 54 52 53 57 60 62 63 64 64 65 69 71 71 70 68 70 71 72 72 72 68 69 65 66
10 7 15 16 18 26 28 28 27 31 31 30 37 32 34 37 37 39 47 51 54 53 51 55 58 61 62 63 65 65 67 70 70 69 69 70 72 69 68 70 68 67 66 67
12 8 12 14 16 22 28 29 27 27 33 30 28 32 34 34 39 38 45 50 52 53 51 54 56 59 62 63 64 65 67 70 70 69 70 71 72 72 69 71 72 69 72 69
17 15 9 12 15 18 26 29 25 25 32 30 28 31 29 37 36 43 48 51 52 54 51 53 54 59 60 62 63 65 66 68 70 69 70 70 72 73 73 73 73 72 72 73
13 14 13 14 16 15 18 27 28 24 30 28 27 27 34 35 36 44 50 51 52 53 50 52 52 56 60 60 61 63 65 67 69 70 70 71 71 72 73 72 72 73 73 74
17 13 13 10 13 15 18 27 29 25 34 30 30 25 30 33 34 45 49 49 52 50 48 51 53 56 59 60 61 62 64 66 68 70 72 71 71 71 71 72 72 73 74 74
21 16 13 14 7 14 17 22 27 28 31 35 29 28 31 36 44 46 47 47 53 52 49 51 55 57 59 61 62 62 64 65 68 71 71 71 70 70 71 71 73 73 74 74
36 20 19 8 15 11 17 18 23 27 29 31 29 30 32 32 38 47 47 46 52 54 52 52 57 61 62 64 65 65 65 65 68 69 70 70 70 70 70 72 73 74 75 74
28 26 21 15 10 10 14 15 18 28 29 29 31 31 33 35 36 46 48 46 51 55 55 54 57 62 63 66 67 67 66 67 67 70 70 71 72 72 72 73 74 75 75 73
29 28 27 21 15 13 10 12 16 23 28 29 31 31 33 36 35 45 50 50 51 54 54 57 59 62 65 67 67 68 68 70 71 71 70 72 72 73 73 74 75 75 74 72
30 28 31 26 20 16 15 14 14 19 27 29 29 34 34 34 37 39 42 49 51 52 55 57 60 64 66 67 70 68 70 70 72 72 72 72 73 73 74 74 75 74 73 70
30 31 29 21 24 19 17 16 15 18 20 27 30 34 36 36 38 37 38 37 50 51 51 56 59 64 68 66 68 69 67 72 70 71 72 73 74 73 74 75 74 73 70 67
22 26 23 23 20 20 16 17 18 20 24 27 29 31 33 34 35 39 39 44 43 48 55 58 58 63 68 66 70 72 71 70 70 70 72 72 73 73 74 74 74 71 68 65
18 28 21 26 22 20 23 18 20 20 21 26 29 33 32 36 33 36 41 45 47 46 50 55 57 60 63 70 71 73 72 72 71 71 73 73 74 74 74 75 73 70 67 63
21 25 21 21 25 22 27 22 21 23 24 27 27 32 34 35 38 40 37 44 45 47 53 57 59 61 66 70 71 72 72 72 72 70 71 73 74 75 75 75 71 68 65 61
27 26 22 24 25 24 37 28 28 42 49 36 31 30 33 37 37 39 42 47 47 50 54 59 61 61 68 70 72 73 72 74 73 73 73 74 75 73 73 72 69 67 63 59
31 26 26 26 25 36 40 45 46 49 52 51 51 48 38 35 35 37 43 45 49 51 55 58 59 63 66 72 72 71 73 75 75 75 75 75 75 73 72 70 68 63 62 57
39 40 36 38 35 43 45 47 50 53 54 53 53 54 52 46 41 39 44 48 50 52 55 60 59 61 69 70 70 71 74 75 75 74 74 74 73 72 71 68 66 63 61 59
41 43 43 45 46 45 45 48 51 53 54 54 54 54 54 52 44 46 49 58 55 61 59 63 65 68 68 69 70 69 73 74 72 72 72 71 70 69 68 68 66 64 64 60
39 39 38 40 41 42 45 49 52 53 51 55 57 57 56 56 48 46 48 50 57 58 62 66 67 67 68 70 69 73 74 74 73 70 69 68 67 67 67 63 61 49 52 48

GFSCGP_sfc_dewp_195.txt.gz
Dewpoint
19 17 18 23 29 33 44 39 34 27 37 39 40 42 53 56 55 56 59 60 59 59 60 62 62 62 61 64 66 68 70 73 71 69 68 67 65 65 64 65 67 69 69 70
17 17 20 21 26 29 47 36 34 35 35 36 35 38 42 55 54 54 55 58 59 59 60 62 63 63 62 63 66 67 70 72 72 69 70 67 67 65 65 65 68 69 69 70
14 18 17 19 23 26 29 30 31 34 36 38 35 35 36 49 54 52 53 55 57 58 59 62 64 63 62 63 66 66 70 72 72 73 70 71 70 69 64 64 65 69 68 69
10 14 16 17 19 25 26 29 28 27 31 31 38 33 37 43 52 52 50 51 54 57 59 62 62 63 62 62 64 67 71 72 71 73 73 75 66 63 62 64 66 66 68 69
10 9 14 18 18 23 26 28 28 29 31 32 37 31 29 44 49 51 48 49 51 54 57 59 61 63 63 63 63 65 72 72 73 73 73 68 70 65 64 64 71 72 73 71
10 9 10 14 16 20 26 27 29 29 29 27 29 28 28 39 45 50 50 49 49 50 55 58 61 62 63 63 64 63 71 74 73 71 71 72 72 71 66 67 65 65 65 67
13 7 7 11 15 18 24 25 26 27 26 25 30 28 30 46 38 44 50 50 50 48 52 57 60 61 63 64 64 63 69 72 71 70 69 71 72 72 72 71 68 69 65 64
12 8 6 11 15 19 22 25 24 30 25 25 35 31 29 48 36 40 47 50 51 48 49 54 58 61 62 62 63 63 68 72 72 71 73 73 74 68 68 72 68 66 65 66
12 12 5 9 15 17 21 26 25 25 29 32 46 36 30 34 33 33 36 50 51 50 47 52 56 60 62 63 63 64 68 71 71 71 73 75 74 74 70 75 75 69 74 68
16 14 8 5 13 15 17 26 24 25 30 37 35 38 24 34 33 38 39 47 52 52 46 50 54 59 61 62 63 65 66 69 70 70 71 71 73 74 74 73 73 74 72 72
13 13 14 9 13 14 16 19 26 23 23 29 34 39 31 36 35 36 42 48 52 52 47 48 52 57 59 60 62 63 64 67 70 72 73 74 72 73 73 72 72 73 73 74
18 10 15 10 11 13 15 20 23 25 32 26 30 31 27 33 34 38 44 51 51 50 48 49 52 55 58 60 61 62 65 67 71 73 75 73 71 72 72 73 72 73 73 74
25 16 14 16 7 13 14 17 21 27 27 31 31 33 34 34 36 41 47 49 50 50 48 49 53 55 58 59 63 62 65 65 68 74 71 71 71 71 71 71 73 74 73 74
37 25 20 11 17 12 16 15 18 21 27 28 28 41 44 35 41 43 47 47 49 51 49 51 54 62 63 63 67 67 67 65 68 70 70 73 71 71 70 73 75 74 75 74
27 28 24 17 12 10 10 11 14 19 27 26 30 40 46 37 43 44 45 47 50 49 49 53 56 63 64 65 67 68 66 66 68 72 71 73 74 74 74 74 75 75 75 74
29 29 28 20 14 11 9 9 12 17 21 26 28 32 31 41 42 45 44 46 50 51 48 52 57 62 65 66 67 68 68 70 70 72 73 74 76 76 76 76 77 77 76 75
30 29 29 24 18 15 14 11 12 16 21 24 27 33 38 38 38 45 45 44 49 50 50 55 58 62 65 66 69 68 70 70 72 73 74 75 76 76 76 76 76 76 76 74
31 37 34 23 26 19 17 15 12 15 19 22 30 32 38 37 36 37 43 44 46 49 51 54 55 62 66 65 68 68 68 72 72 73 74 75 76 76 77 77 77 78 75 73
22 29 28 27 22 23 18 19 17 17 19 21 28 32 33 37 36 38 39 41 46 48 49 55 55 60 67 66 69 70 70 72 72 73 74 75 76 76 76 77 78 77 73 71
21 29 27 27 23 21 25 18 18 19 19 23 23 30 31 35 34 36 40 39 41 43 51 55 54 55 63 70 70 72 71 71 73 72 74 76 76 77 77 78 78 76 73 70
21 24 25 25 26 23 24 20 19 21 26 33 26 30 32 33 36 41 39 40 41 45 48 51 57 59 64 71 71 72 73 72 73 74 75 76 77 78 78 79 78 73 71 69
23 24 21 25 27 25 35 31 36 45 50 48 47 38 37 35 37 40 41 43 42 45 46 49 55 60 66 70 73 73 74 74 75 75 75 77 78 75 75 79 75 73 71 67
25 25 25 27 26 41 42 46 50 51 53 52 52 51 51 48 37 37 42 43 44 46 50 49 53 66 68 71 73 73 74 76 76 76 76 77 78 77 77 75 72 70 69 63
33 35 28 34 32 32 44 47 50 52 52 52 51 51 50 50 51 50 48 45 46 48 53 48 53 62 69 71 72 73 76 77 77 76 77 77 77 77 77 72 70 68 64 62
46 45 37 37 46 46 45 48 47 50 52 51 51 51 50 51 52 53 52 57 55 56 56 55 61 66 69 74 74 74 76 76 75 75 75 75 72 74 73 70 69 67 66 62
49 47 39 40 44 44 46 45 45 49 52 55 58 60 61 57 54 53 53 53 55 55 57 63 66 70 71 74 74 75 75 77 75 74 72 70 70 72 70 69 64 51 57 52